Location: Burla
(50.9568°N, 10.4983°E)
Time: 21:59:50
(UTC+00:00)

Cosmos 1703 Rocket - Pass Details

Date: 18 January 2026
Orbit: 599 x 625 km, 82.5° (Epoch: 18 February)

Event Time Altitude Azimuth Distance (km) Brightness Sun altitude
Rises 05:33:48 0° 353° (N) 2,861 6.8 -15.0°
Reaches altitude 10° 05:36:04 10° 358° (N) 1,955 6.0 -14.6°
Maximum altitude 05:40:18 53° 75° (ENE) 748 4.3 -14.0°
Drops below altitude 10° 05:44:31 10° 153° (SSE) 1,948 6.7 -13.3°
Sets 05:46:46 0° 158° (SSE) 2,851 7.6 -13.0°
